Regional Weather Roundup
Issued by NWS Upton, NY

Current Version | Previous Version | Graphics & Text | Print | Product List | Glossary Off
Versions: 1 2 3 4 5 6 7 8 9 10 11 12 13 14 15 16 17 18 19 20 21 22 23 24 25 26

000
ASUS41 KOKX 180005
RWROKX
REGIONAL WEATHER ROUNDUP
NATIONAL WEATHER SERVICE NEW YORK NY
800 PM EDT THU APR 17 2014

NOTE: "FAIR" INDICATES FEW OR NO CLOUDS BELOW 12,000 FEET WITH NO
SIGNIFICANT WEATHER AND/OR OBSTRUCTIONS TO VISIBILITY.

NYZ071-072-176-178-NJZ106-104-180100-
NEW YORK CITY METRO AREA


CITY           SKY/WX    TMP DP  RH WIND       PRES   REMARKS
CENTRAL PARK   CLEAR     42  30  62 VRB7      30.67S
LAGUARDIA APRT PTCLDY    42  29  59 SE6       30.65S
KENNEDY INTL   MOCLDY    41  31  67 E13       30.66F
NEWARK/LIBERTY MOCLDY    42  31  64 E8        30.65F
TETERBORO      CLEAR     44  31  60 SW10      30.63F
$$

NYZ177-179-078>081-180100-
LONG ISLAND NEW YORK

CITY           SKY/WX    TMP DP  RH WIND       PRES   REMARKS
FARMINGDALE    CLEAR     39  30  70 E8        30.65F WCI  33
ISLIP          PTCLDY    40  28  62 E12       30.64F WCI  33
SHIRLEY        CLEAR     38  28  67 MISG      30.67F
WESTHAMPTON    CLEAR     39  27  62 E7G17     30.67F WCI  34
MONTAUK POINT    N/A     40  29  64 NE10G21   30.68S WCI  33
$$

NYZ052-065-067-180100-
HUDSON VALLEY

CITY           SKY/WX    TMP DP  RH WIND       PRES   REMARKS
WHITE PLAINS   CLEAR     40  24  53 CALM      30.62F
NEWBURGH       CLEAR     45  21  39 S9        30.62S
MONTGOMERY     PTCLDY    43  18  36 S7        30.61R
POUGHKEEPSIE   PTCLDY    47  20  34 S5        30.61S
ALBANY         PTCLDY    48  17  29 SE7       30.60S
$$

NJZ001-105-106-008-010-013-015-019>022-104-180100-
NEW JERSEY

CITY           SKY/WX    TMP DP  RH WIND       PRES   REMARKS
NEWARK/LIBERTY MOCLDY    42  31  64 E8        30.65F
TETERBORO      CLEAR     44  31  60 SW10      30.63F
CALDWELL       CLEAR     42  29  59 S9        30.64F
MORRISTOWN     CLEAR     41  28  60 SE6       30.65F
SOMERVILLE     CLEAR     40  29  64 SE6       30.63
LINDEN         FAIR      43  32  65 SE8       30.68S
SUSSEX         PTCLDY    44  27  51 S5        30.61S
ANDOVER          N/A     41  28  60 VRB3      30.61F
TRENTON        PTCLDY    41  28  60 SE8       30.63S
MILLVILLE      PTCLDY    39  29  67 E9        30.63S WCI  33
ATLANTIC CITY  MOCLDY    38  29  70 NE10      30.63S WCI  31
WRIGHTSTOWN    PTCLDY    38  29  68 E7        30.62S WCI  33
TOMS RIVER     PTCLDY    39  28  65 CALM      30.64F
BELMAR         PTCLDY    39  27  60 E10       30.64S WCI  32
$$

PAZ047>061-062-071-180100-
EASTERN PENNSYLVANIA

CITY           SKY/WX    TMP DP  RH WIND       PRES   REMARKS
PHILADELPHIA   PTCLDY    43  26  51 E12       30.64S
ALLENTOWN      CLEAR     45  28  51 E14       30.60S
SCRANTON       PTCLDY    46  25  43 S10G20    30.53S
$$

CTZ002-004>006-009-010-012-RIZ004-006-007-MAZ004-011-015-180100-
SOUTHERN NEW ENGLAND
 IN CT

CITY           SKY/WX    TMP DP  RH WIND       PRES   REMARKS
BRADLEY INTL   PTCLDY    44  19  36 E12       30.66R
HARTFORD       CLEAR     44  23  43 E10       30.66R
DANBURY        CLEAR     40  26  57 SE6       30.65S
WTRBRY/OXFORD  CLEAR     37  25  60 S9        30.66S WCI  31
BRIDGEPORT     CLEAR     42  31  64 E12       30.66F
MERIDEN        CLEAR     40  29  64 S5        30.66S
NEW HAVEN      PTCLDY    41  30  65 E8        30.67S
CHESTER        FAIR      39  32  75 CALM      30.65F
GROTON         PTCLDY    40  25  55 E14       30.68R WCI  32
WILLIMANTIC    CLEAR     41  23  48 E10       30.68S

 IN RI

CITY           SKY/WX    TMP DP  RH WIND       PRES   REMARKS
PROVIDENCE     MOCLDY    37  24  59 NE15      30.71S WCI  28
BLOCK ISLAND   CLEAR     37  27  65 NE17G25   30.66F WCI  28
WESTERLY       CLEAR     38  26  62 NE10G17   30.69S WCI  31

 IN MA

CITY           SKY/WX    TMP DP  RH WIND       PRES   REMARKS
BOSTON         MOCLDY    36  24  62 NE10      30.75S WCI  28
WORCESTER      CLEAR     33  23  66 E7        30.67S WCI  27
WESTFIELD      CLEAR     43  21  41 E8        30.66R
PROVINCETOWN   CLEAR     36  27  69 MISG      30.73F
NANTUCKET      PTCLDY    36  25  64 NE15G22   30.67F WCI  27
$$

ANZ330-335-338-340-345-350-353-355-180100-
COASTAL MARINE OBSERVATIONS


STATION/POSITION TIME  SKY/WX   TEMP    WIND        PRES    VSBY  WAVE
                                AIR SEA DIR/SP/G                  HT/PER
                 (UTC)          (F)     (DEG/KT/KT) (MB)    (MI)  (FT/S)
NY HARB ENTRANCE 0000            40 43   80/ 17/ 21 1037.2
4S FIRE IS       2300               44                N/A           7/ 7
23SW MTP         0000            39 42   60/ 19/ 25 1037.3          7/ 7
HUDSON CANYON    2300            40 45   50/ 21/ 27 1035.7          9/ 8
EXECUTION ROCKS  0000            43 42   80/ 10/ 14   N/A
WESTERN LI SOUND 0000            42      80/ 12/ 14   N/A           1/ 3
CENTRAL LI SOUND 2300            41 42  110/ 16/ 19   N/A           3/ 5
EASTERN LI SOUND NOT AVBL
ROBBINS REEF     0000            40     130/ 15/ 17   N/A
$$


>>>>>>>>>>>>>>>>>>>>>>>>>>>> KEY <<<<<<<<<<<<<<<<<<<<<<<<<<<
>                                                          <
>     SKY/WX - SKY CONDITION/PRESENT WEATHER               <
>     TMP    - TEMPERATURE IN FAHRENHEIT                   <
>     DP     - DEWPOINT IN FAHRENHEIT                      <
>     RH     - RELATIVE HUMIDITY IN PERCENT                <
>     WIND   - DIRECTION AND SPEED IN MPH                  <
>     PRES   - MEAN SEA LEVEL PRESSURE IN INCHES OF HG     <
>     WCI    - WIND CHILL INDEX                            <
>     VSB    - VISIBILITY IN MILES                         <
>     HX     - HEAT INDEX                                  <
>     TC     - TEMPERATURE IN CELSIUS                      <
>     VRB    - VARIABLE WIND DIRECTION                     <
>                                                          <
>>>>>>>>>>>>>>>>>>>>>>>>>>>> KEY <<<<<<<<<<<<<<<<<<<<<<<<<<<





USA.gov is the U.S. government's official web portal to all federal, state and local government web resources and services.